Location: Henderson
(36.0400°N, 114.9810°W)
Time: 05:12:48
(UTC-07:00)

Daily predictions for brighter satellites

Satellite Brightness Start Highest point End
(mag) Time Altitude Azimuth Time Altitude Azimuth Time Altitude Azimuth
ATLAS 3B R/B 4.2 00:57:28 33° NNE 00:57:28 33° NNE 01:01:15 10° NNE
Cosmos 2369 Rocket 4.3 02:02:31 10° N 02:06:18 21° NE 02:06:18 21° NE
SL-16 R/B 4.4 02:29:10 18° NNW 02:29:10 18° NNW 02:31:00 10° N
CZ-3A R/B 3.7 02:44:30 74° SSW 02:45:47 86° SE 03:33:36 10° NE
CZ-4C R/B 4.1 02:51:33 22° NNW 02:51:33 22° NNW 02:54:51 10° N
ATLAS 5 CENTAUR R/B 3.6 02:56:50 30° ENE 02:56:50 30° ENE 02:59:36 10° NE
Cosmos 839 Rocket 4.3 02:54:26 10° NNW 03:02:27 76° ENE 03:02:41 75° E
SL-16 R/B 2.8 03:08:38 60° E 03:09:08 62° ENE 03:15:14 10° N
IRS-1D 4.2 03:14:23 10° NNE 03:18:23 54° NNE 03:18:23 54° NNE
Cosmos 1733 Rocket 4.4 03:21:13 10° N 03:24:38 37° NE 03:24:38 37° NE
Cosmos 1709 Rocket 4.0 03:19:19 10° N 03:25:41 78° E 03:26:15 71° SE
CZ-2D R/B 2.4 03:20:44 10° NNE 03:25:09 62° NE 03:25:09 62° NE
ARIANE 5 R/B 3.2 03:21:52 10° N 03:25:47 51° N 03:25:47 51° N
USA 234 3.2 03:30:43 10° NE 03:37:11 66° NW 03:38:01 60° W
Cosmos 1943 4.1 03:38:42 36° NW 03:38:42 36° NW 03:42:59 10° N
COSMOS 2406 3.9 03:40:43 40° SE 03:42:07 49° ESE 03:47:39 10° NNE
Cosmos 1455 4.0 03:47:05 27° N 03:47:05 27° N 03:48:57 10° N
Atlas Centaur 2 3.7 03:47:32 16° SE 03:47:32 16° SE 03:49:17 10° ESE
CZ-2D R/B 3.8 03:46:22 10° NNE 03:50:16 66° NE 03:50:16 66° NE
Cosmos 2369 Rocket 3.6 03:45:36 10° NNW 03:47:59 25° NW 03:47:59 25° NW
Resurs 1-4 Rocket 2.4 03:51:14 10° N 03:55:55 50° NW 03:55:55 50° NW
MOS 1-B 4.2 03:52:02 10° N 03:57:49 76° WNW 03:58:48 61° SW
CZ-4B R/B 4.0 03:53:16 10° NNE 03:58:20 44° E 04:01:33 21° SSE
SL-27 R/B 3.5 04:00:54 45° NNE 04:00:54 45° NNE 04:03:30 10° NNE
Okean O Rocket 2.0 03:58:03 10° NNE 04:02:29 60° E 04:03:31 46° SSE
PSLV R/B 3.9 04:03:00 10° NNE 04:06:47 68° ESE 04:06:47 68° ESE
Cosmos 1408 3.8 04:04:50 10° N 04:08:25 42° E 04:10:50 18° SE
ARGOS Delta rocket 3.4 04:04:14 10° N 04:08:39 85° W 04:09:00 74° SSW
ADEOS II 4.2 04:04:30 10° NE 04:08:40 23° E 04:12:48 10° SSE
CENTAUR R/B 2.5 04:07:19 50° WSW 04:08:51 68° NW 04:15:36 10° NNE
Cosmos 1943 Rocket 2.1 04:04:07 10° NNW 04:09:49 86° WSW 04:15:25 10° SSE
Cosmos 1703 Rocket 4.2 04:08:10 29° SSE 04:10:13 53° E 04:14:36 10° NNE
Sich 1 Rocket 3.4 04:13:27 10° N 04:17:51 90° W 04:19:50 32° S
Cosmos 1825 2.3 04:19:09 10° N 04:22:56 71° E 04:25:15 22° SSE
Cosmos 2285 Rocket 4.1 04:18:37 10° NNW 04:25:04 77° ENE 04:31:26 10° SSE
IRS-1C Rocket 4.0 04:23:26 10° N 04:28:41 69° WNW 04:31:10 32° SSW
PAYLOAD B 4.1 04:30:18 10° N 04:35:49 76° WNW 04:39:38 21° SSW
Cosmos 1656 Rocket 3.7 04:33:25 10° NNW 04:38:51 76° ENE 04:44:15 10° SSE
ATLAS 5 CENTAUR R/B 3.5 04:38:24 18° WNW 04:39:43 20° NW 04:43:31 10° N
Okean 1-7 3.0 04:40:30 14° S 04:44:11 83° E 04:48:32 10° N
BREEZE-M DEB (TANK) 3.0 04:47:42 42° W 04:48:17 54° NNW 04:52:24 10° NE
Cosmos 407 Rocket 3.5 04:44:29 15° SSW 04:48:51 88° ESE 04:54:09 10° NNE
Cosmos 1862 3.6 04:46:20 10° NNW 04:50:07 44° W 04:52:21 21° SSW
SL-16 R/B 3.9 04:53:44 17° W 04:53:44 17° W 04:57:08 10° NW
Okean 2 Rocket 3.1 04:49:06 10° N 04:53:38 84° E 04:58:09 10° S
CZ-2C R/B 4.0 04:50:26 10° S 04:54:38 42° W 04:58:51 10° NNW
Meteor 1-26 Rocket 4.3 04:55:58 10° SSW 05:01:46 71° W 05:07:39 10° N
SeaSat 1 2.8 04:57:34 10° S 05:02:12 42° WSW 05:06:52 10° NW
Nadezhda 1 Rocket 4.3 04:59:45 12° SSW 05:05:14 45° W 05:11:17 10° N
CZ-2D R/B 4.0 05:03:37 10° NW 05:05:20 12° WNW 05:06:28 11° WNW
AVUM R/B 3.4 05:05:31 23° SW 05:07:15 53° WNW 05:10:31 10° NNE
GPS 2-05 Rocket1 3.0 05:05:59 24° WSW 05:07:49 57° SSE 05:11:02 10° E
Cosmos 1140 Rocket 4.5 05:03:25 10° S 05:08:17 47° ESE 05:13:13 10° NNE
Feng Yun 1-1 Rocket 4.2 05:04:06 10° NNE 05:09:31 89° ESE 05:14:58 10° SSW
Cosmos 1782 Rocket 3.8 05:08:26 10° NNW 05:12:33 44° W 05:16:39 10° SSW
CZ-4B R/B 3.9 05:09:46 10° NNW 05:12:50 25° WNW 05:14:48 17° WSW
Meteor 1-14 Rocket 4.3 05:10:35 10° NNW 05:16:26 77° W 05:22:21 10° S
Geosat 4.1 05:12:02 10° NNE 05:17:00 63° WNW 05:21:57 10° SW
COSMOS 2487 3.1 05:15:21 15° SW 05:17:57 37° WNW 05:21:21 10° N
Cosmos 2181 Rocket 4.1 05:13:44 10° S 05:20:11 81° W 05:26:36 10° N
Meteor PRIRODA 3.6 05:17:33 10° N 05:21:18 67° WNW 05:25:02 10° SSW
MOS 1 Rocket 3.8 05:17:25 10° NNE 05:21:38 55° E 05:25:51 10° S
Ariane Rocket 4.4 05:19:01 10° NNE 05:23:48 40° E 05:28:33 10° SSE
Cosmos 1782 3.2 05:24:03 10° S 05:28:02 70° E 05:32:05 10° NNE
Abrixas rocket 4.1 05:26:47 10° NW 05:29:48 30° NNE 05:32:49 10° E
NOAA 6 4.4 05:27:16 10° NNE 05:32:26 73° ESE 05:37:35 10° S
COSMO-SKYMED 1 4.3 05:29:31 10° SE 05:33:33 39° ENE 05:37:36 10° N
Atlas Centaur 2 2.6 05:30:13 10° WSW 05:34:24 40° S 05:39:39 10° ESE
Cosmos 1295 Rocket 4.5 05:30:49 10° N 05:36:56 80° W 05:43:06 10° S
Cosmos 2154 Rocket 4.4 05:31:52 10° NNW 05:37:46 43° W 05:43:40 10° SSW
Meteor 1-10 Rocket 4.4 05:31:55 10° S 05:37:46 86° E 05:43:32 10° N
Okean O Rocket 3.6 05:36:49 10° NW 05:38:18 11° WNW 05:39:46 10° W
CZ-4B R/B 4.5 05:34:44 10° NNW 05:38:33 20° WNW 05:42:20 10° WSW
BREEZE-M DEB (TANK) 4.4 05:16:41 10° WNW 05:38:45 69° SW 05:43:46 10° SE
Cosmos 1606 3.6 05:36:11 10° S 05:40:01 57° E 05:43:52 10° NNE
Thor Agena Rocket 4.4 05:37:06 10° SSW 05:41:23 27° W 05:45:45 10° NW
PSLV R/B 3.3 05:38:52 10° WNW 05:42:19 88° NNE 05:45:41 10° ESE
Meteor 2-10 Rocket 3.9 05:36:38 10° SSW 05:42:21 57° W 05:47:58 10° N
Cosmos 1356 3.7 05:39:24 10° N 05:42:57 75° E 05:46:28 10° SSE
Timation 2 Rocket 4.1 05:37:46 10° SSW 05:44:03 84° ESE 05:50:09 10° NNE
Okean-O 3.6 05:42:08 10° N 05:45:57 29° WNW 05:49:45 10° SW
CZ-3 R/B 4.3 05:33:49 10° W 05:58:20 28° SW 06:06:34 10° S
